Date,TemperatureHighF,TemperatureAvgF,TemperatureLowF,DewpointHighF,DewpointAvgF,DewpointLowF,HumidityHigh,HumidityAvg,HumidityLow,PressureMaxIn,PressureMinIn,WindSpeedMaxMPH,WindSpeedAvgMPH,GustSpeedMaxMPH,PrecipitationSumIn
2013-3-1,47.9,35.6,21.7,24.0,18.1,15.0,80,53,29,30.44,30.28,9,1,0,0.00
2013-3-2,62.5,46.8,32.2,33.0,27.7,18.0,76,50,29,30.28,29.93,9,2,0,0.00
2013-3-3,59.6,46.8,35.2,32.0,28.6,21.0,70,51,34,29.92,29.54,13,3,0,0.00
2013-3-4,35.6,28.5,20.2,22.0,10.9,3.0,73,49,31,30.38,29.75,16,7,0,0.00
2013-3-5,34.0,21.8,11.2,14.0,9.3,4.0,75,60,43,30.58,30.38,9,2,0,0.00
2013-3-6,48.5,30.6,13.5,23.0,16.3,8.0,80,58,34,30.42,29.94,7,2,0,0.00
2013-3-7,56.8,40.5,28.4,28.0,24.3,21.0,76,55,30,30.24,29.91,14,4,0,0.00
2013-3-8,43.5,34.3,26.5,28.0,25.2,21.0,85,70,53,30.23,29.98,6,2,0,0.00
2013-3-9,44.1,33.8,27.3,30.0,22.4,13.0,89,66,31,30.25,29.91,22,8,0,0.00
2013-3-10,43.8,30.5,17.9,20.0,12.3,7.0,83,51,24,30.37,30.12,14,5,0,0.00
2013-3-11,49.9,37.9,26.2,27.0,17.0,8.0,57,44,29,30.24,30.02,14,5,0,0.00
2013-3-12,42.2,32.2,24.9,14.0,6.8,4.0,52,35,24,30.41,30.24,13,5,0,0.00
2013-3-13,67.9,45.7,26.2,31.0,18.5,5.0,44,35,25,30.35,30.10,5,2,0,0.00
2013-3-14,74.4,58.4,43.7,34.0,30.5,28.0,55,37,21,30.20,29.92,7,1,0,0.00
2013-3-15,69.3,52.8,34.4,33.0,29.0,26.0,72,42,23,30.06,29.76,12,4,0,0.00
2013-3-16,34.4,29.5,23.8,29.0,24.8,21.0,90,83,72,30.13,30.05,7,1,0,0.01
2013-3-17,49.8,31.8,22.3,39.0,26.0,18.0,91,80,58,30.07,29.48,19,5,0,0.00
2013-3-18,40.3,27.3,14.3,18.0,10.1,4.0,79,52,24,30.13,29.90,13,5,0,0.00
2013-3-19,38.4,30.6,18.6,21.0,12.5,5.0,66,48,31,30.54,30.09,13,4,0,0.00
2013-3-20,48.3,29.6,11.5,19.0,12.4,5.0,75,52,30,30.54,29.96,12,3,0,0.00
2013-3-21,44.1,30.3,18.9,24.0,19.0,11.0,88,65,45,30.01,29.76,12,2,0,0.00
2013-3-22,35.6,26.3,17.2,29.0,22.7,14.0,90,86,71,30.28,29.98,10,2,0,0.01
2013-3-23,27.0,19.7,9.1,19.0,13.5,5.0,89,77,67,30.47,30.28,16,6,0,0.00
2013-3-24,22.8,16.3,8.9,14.0,9.9,4.0,92,76,64,30.58,30.43,17,5,0,0.00
2013-3-25,31.0,19.7,7.3,17.0,10.9,3.0,83,70,52,30.60,30.43,4,1,0,0.00
2013-3-26,43.5,27.7,13.2,25.0,17.0,8.0,82,65,47,30.42,30.19,5,1,0,0.00
2013-3-27,54.9,37.6,20.5,31.0,22.3,16.0,83,58,29,30.26,30.17,6,1,0,0.00
2013-3-28,64.8,46.7,28.5,32.0,26.9,21.0,76,50,27,30.18,30.10,7,1,0,0.00
2013-3-29,69.9,52.8,33.7,38.0,31.1,25.0,72,47,25,30.14,29.96,10,2,0,0.00
2013-3-30,58.5,48.0,36.8,42.0,33.7,29.0,80,59,38,30.18,30.04,12,3,0,0.01
2013-3-31,52.5,39.6,31.0,32.0,26.3,20.0,81,62,34,30.31,30.01,12,2,0,0.00